Location: Hamburg
(53.5554°N, 9.9941°E)
Time: 03:49:24
(UTC+02:00)

ISS - Pass Details

Date: 09 May 2021
Orbit: 417 x 422 km, 51.6° (Epoch: 15 June)

Event Time Altitude Azimuth Distance (km) Brightness Sun altitude
Exits shadow 02:02:02 25° 116° (ESE) 899 -2.3 -18.4°
Drops below altitude 10° 02:03:55 10° 91° (E) 1,510 -0.8 -18.3°
Sets 02:06:08 0° 82° (E) 2,378 0.4 -18.3°
